Flag for U.S.A. Weather past 2 weeks in Ontario, Oregon, U.S.A.

Now
68 °F

Passing clouds.


Feels Like: 68 °F
Forecast: 61 / 83 °F
Wind: No wind

Location: Ontario Municipal Airport

Current Time: Sep 22, 2014 at 10:42:37 AM

Latest Report: Sep 22, 2014 at 9:53 AM


Visibility: 10 mi

Pressure: 30.03 "Hg

Humidity: 68%

Dew point: 57 °F

Location of OntarioLocation

Historic Weather in Ontario — Graph

°F

Ontario temperature yesterday

Maximum temperature yesterday: 84 °F (at 5:53 PM)
Minimum temperature yesterday: 50 °F (at 7:53 AM)
Average temperature yesterday: 67 °F

Past Weeks' High & Low Weather Summary

 TemperatureHumidityPressure
High92 °F (Sep 16, 4:53 PM)81% (Sep 16, 6:53 AM)30.27 "Hg (Sep 16, 6:53 AM)
Low39 °F (Sep 13, 7:53 AM)10% (Sep 8, 3:53 PM)29.62 "Hg (Sep 17, 11:53 PM)
Average68 °F39%29.93 "Hg
* Reported Sep 7 8:53 AM — Sep 22 8:53 AM, Ontario, Weather by CustomWeather, © 2014

Note: Actual official high and low records may vary slightly from our data, if they occured in-between our weather recording intervals... More about our weather records

Advertising

Ontario weather history for previous 24 hours

 ConditionsComfort  
Time TempWeatherWind HumidityBarometerVisibility
8:53 AM
Sep 22
65 °FSunny.No wind73%30.02 "Hg10 mi
7:53 AM64 °FPassing clouds.No wind75%30.01 "Hg10 mi
6:53 AM63 °FPassing clouds.No wind78%30.00 "Hg10 mi
5:53 AM66 °FPassing clouds.3 mph70%29.99 "Hg10 mi
4:53 AM66 °FPassing clouds.3 mph70%29.99 "Hg10 mi
3:53 AM66 °FPassing clouds.3 mph75%29.98 "Hg10 mi
2:53 AM67 °FPassing clouds.No wind71%29.98 "Hg10 mi
1:53 AM67 °FPartly cloudy.No wind68%29.98 "Hg10 mi
12:53 AM69 °FPassing clouds.7 mph63%29.97 "Hg10 mi
11:53 PM
Sep 21
69 °FPassing clouds.3 mph66%29.97 "Hg10 mi
10:53 PM71 °FClear.12 mph61%29.98 "Hg10 mi
9:53 PM72 °FClear.13 mph55%29.97 "Hg10 mi
8:53 PM74 °FMostly cloudy.9 mph46%29.96 "Hg10 mi
7:53 PM76 °FPassing clouds.8 mph40%29.95 "Hg10 mi
6:53 PM82 °FPassing clouds.5 mph32%29.93 "Hg10 mi
5:53 PM84 °FSunny.10 mph30%29.93 "Hg10 mi
4:53 PM82 °FSunny.10 mph31%29.94 "Hg10 mi
3:53 PM83 °FSunny.8 mph33%29.94 "Hg10 mi
2:53 PM81 °FSunny.5 mph33%29.95 "Hg10 mi
1:53 PM79 °FSunny.3 mph35%29.97 "Hg10 mi
12:53 PM78 °FSunny.3 mph33%29.98 "Hg10 mi
11:53 AM74 °FSunny.No wind36%30.00 "Hg10 mi
10:53 AM64 °FSunny.No wind50%30.02 "Hg10 mi
Weather by CustomWeather, © 2014

See weather overviewHow to use our weather pages